Location: St. Louis
(38.6270°N, 90.1994°W)
Time: 05:14:37
(UTC-06:00)

A-11 Canister half - Pass Details

Date: 29 November 2021
Orbit: 1524 x 1684 km, 47.3° (Epoch: 22 January)

Event Time Altitude Azimuth Distance (km) Brightness Sun altitude
Exits shadow 04:58:41 34° 293° (WNW) 2,517 9.6 -22.8°
Maximum altitude 05:03:12 54° 351° (N) 1,948 9.3 -22.0°
Drops below altitude 10° 05:12:48 10° 68° (ENE) 3,837 11.9 -20.1°
Sets 05:16:00 0° 73° (ENE) 4,801 12.6 -19.5°
